Regional Weather Roundup
Issued by NWS

Home | Current Version | Previous Version | Text Only | Print | Product List | Glossary Off
Versions: 1 2 3 4 5 6 7 8 9 10 11 12 13 14 15 16 17 18 19 20 21 22 23 24 25 26 27 28 29 30 31 32 33 34 35 36 37 38 39 40 41 42 43 44 45 46 47 48 49 50

000
ASUS45 KBOU 270607
RWRCO

WEATHER ROUNDUP FOR COLORADO
NATIONAL WEATHER SERVICE DENVER/BOULDER CO
1100 PM MST SUN FEB 26 2017

NOTE: "FAIR" INDICATES FEW OR NO CLOUDS BELOW 12000 FEET WITH NO
SIGNIFICANT WEATHER AND/OR OBSTRUCTIONS TO VISIBILITY.

COZ001>005-013-030-031-270700-
...NORTHWEST COLORADO...

CITY           SKY/WX    TMP DP  RH WIND       PRES   REMARKS
CRAIG          CLOUDY    21   7  54 E5        29.76F WCI  15
HAYDEN         CLOUDY    19   3  49 E15       29.75F WCI   5
MEEKER         CLOUDY    24  11  57 N8        29.75F WCI  15
MOUNT WERNER   NOT AVBL
STEAMBOAT SPGS CLOUDY    12   3  66 CALM      29.77F
WALDEN         NOT AVBL
$$

COZ006>008-011-270700-
...WEST CENTRAL VALLEYS...

CITY           SKY/WX    TMP DP  RH WIND       PRES   REMARKS
GRAND JUNCTION MOCLDY    35  14  42 SE8       29.78F WCI  29
MONTROSE       CLOUDY    32  11  41 SE10      29.85S WCI  24
EAGLE          FAIR      19   8  62 CALM      29.82F
RIFLE          CLOUDY    28  14  55 CALM      29.79F
DELTA          CLOUDY    37  10  33 N7        29.83F
NUCLA          MOCLDY    32  10  40 E6        29.86F WCI  26
$$

COZ017>023-064>068-270700-
...SOUTHWEST COLORADO...

CITY           SKY/WX    TMP DP  RH WIND       PRES   REMARKS
DURANGO        CLOUDY    27  14  58 CALM      29.90R
CORTEZ         CLOUDY    32  18  56 S5        29.87S WCI  27
PAGOSA SPRINGS CLOUDY    25   8  49 CALM      29.90S
TELLURIDE      FAIR      22   8  53 CALM      29.85R
WOLF CREEK PAS CLOUDY     9   3  78 SW28G44   29.81F FOG     WCI -13
$$

COZ009-010-012-014-032>034-037-058>063-270700-
...CENTRAL COLORADO...

CITY           SKY/WX    TMP DP  RH WIND       PRES   REMARKS
ASPEN          FAIR      11   2  67 CALM      29.78F
BUENA VISTA    FAIR      26   0  33 N9G21     29.79F WCI  16
COPPER MTN     FAIR       9  -6  52 MISG      29.70F
BERTHOUD PASS  FAIR       1  -9  60 NW23      29.63F WCI -21
COTTONWOOD PAS FAIR      21   1  42 W20G33    29.74F WCI   6
GUNNISON       MOCLDY     8   2  76 E6        29.88F WCI  -2
KREMMLING      CLOUDY    23  10  58 N3        29.78F
LEADVILLE      FAIR      -1  -8  72 E8        29.73F WCI -15
MONARCH PASS     N/A      3   0  85 W35       29.83F WCI -23
SALIDA         FAIR      27   3  35 CALM      29.88F
SUNLIGHT       NOT AVBL
WILKERSON PASS FAIR       9  -2  61 SW20G28   29.70F WCI -11
$$

COZ069>075-270700-
...SAN LUIS VALLEY/SANGRE DE CRISTO MOUNTAINS...

CITY           SKY/WX    TMP DP  RH WIND       PRES   REMARKS
ALAMOSA        FAIR      18  11  74 CALM      29.86S
LA VETA PASS   FAIR      18   3  53 SW28G49   29.75F WCI  -1
SAGUACHE       FAIR      16   5  62 NW9       29.86F WCI   4
$$

COZ035-036-038>040-270700-
...NORTHERN COLORADO FRONT RANGE...

CITY           SKY/WX    TMP DP  RH WIND       PRES   REMARKS
DENVER INTL AP FAIR      23   6  48 W8        29.75F WCI  14
DMNS CITY PARK   N/A     26   5  41 N1G7      29.76F
AURORA         PTCLDY    20   1  44 S6        29.76F WCI  12
FRONT RANGE AP FAIR      23   7  50 SW9       29.76S WCI  13
ERIE MUNI ARPT FAIR      18  11  74 S5        29.76F WCI  11
BOULDER MUN AP FAIR      28  14  54 CALM      29.76F
CENTENNIAL     FAIR      27   1  32 W6        29.74F WCI  20
BROOMFIELD     FAIR      27  12  54 CALM      29.75F
FORT COLLINS   FAIR      22  15  75 N8        29.78F WCI  12
LONGMONT       NOT AVBL
$$

COZ041-046-047-076>085-087-088-270700-
...PIKES PEAK/PALMER DIVIDE AND SOUTHERN FOOTHILLS...

CITY           SKY/WX    TMP DP  RH WIND       PRES   REMARKS
COLO. SPRINGS  FAIR      25  -5  26 E10       29.76F WCI  15
A. F. ACADEMY  FAIR      26  -4  27 VRB5      29.74F WCI  20
SCHRIEVER AFB  FAIR      22  -2  34 E5        29.78F WCI  16
ELLICOTT       NOT AVBL
FALCON         FAIR      18  -1  44 E7        29.77R WCI   8
FORT CARSON    FAIR      32  -1  25 SW17      29.75F WCI  20
LIMON          FAIR      23   6  48 SW8       29.79F WCI  14
MONUMENT HILL  FAIR      25   3  39 SW10      29.77S WCI  15
TRINIDAD       FAIR      21   2  43 NW9       29.79F WCI  11
$$

COZ042>045-048>051-090-091-270700-
...NORTHEAST COLORADO...

CITY           SKY/WX    TMP DP  RH WIND       PRES   REMARKS
GREELEY ARPT   FAIR      19  14  81 N5        29.79F WCI  12
AKRON          FAIR      20  11  68 SE13      29.79F WCI   7
BURLINGTON     FAIR      27   9  46 S20       29.82S WCI  13
WRAY           NOT AVBL
STERLING       FAIR      27  14  59 SE6       29.81F WCI  20
HOLYOKE        FAIR      21  16  79 SE6       29.85S WCI  14
FORT MORGAN    FAIR      21  14  74 NE12      29.78S WCI   9
$$

COZ086-089-092>099-270700-
...SOUTHEAST COLORADO...

CITY           SKY/WX    TMP DP  RH WIND       PRES   REMARKS
PUEBLO         FAIR      20  -2  38 N6        29.78F WCI  12
LA JUNTA       FAIR      36   7  29 S9        29.80F
LAMAR          FAIR      21   6  52 N6        29.82S WCI  13
SPRINGFIELD      N/A     23   8  52 CALM      29.82F
$$



USA.gov is the U.S. government's official web portal to all federal, state and local government web resources and services.